Accueil
METAR-TAF:

METAR-TAF

Aéroports :

Middleton Island, Alaska, États-Unis

latitude: 59-26N, longitude: 146-18W, altitude: 27 m

Observation

Le bulletin a été fait il y a 23 minutes, à 21:51 UTC
Vent 6 kt de nord
Température 2°C
Humidité 75%
Pression 1007 hPa
Visibilité: 16.1 km
Nuages fragmentés à une hauteur de 1900 ft

METAR: PAMD 282151Z AUTO 36006KT 10SM BKN019 02/M02 A2975 RMK AO2 SLP063 T00221017 FZRANO

Heure: 13:14 (22:14 UTC)


TAF: absent

Observations et prévisions météorologiques de plus de 4000 aéroports (messages METAR et TAF).

Les stations disponibles sont représentées par des disques jaunes et rouges sur la carte.

Passer la souris dessus pour voir le nom de la station.

Cliquer dessus pour voir les observations et prévisions météorologiques.

Pour changer de carte: cliquez sur les boutons verts avec une croix noire pour zoomer, sur le bouton vert avec un tiret pour effectuer un zoom arrière, ou sur les flèches vertes pour les cartes adjacentes.


METAR-TAF: